Miscellaneous Local Product
Issued by NWS Hastings, NE

Home | Current Version | Previous Version | Text Only | Print | Product List | Glossary On
Versions: 1 2 3 4 5 6 7 8 9 10 11 12 13 14 15 16 17 18 19 20 21 22 23 24 25 26 27 28 29 30 31 32 33 34 35 36 37 38 39 40 41 42 43 44 45 46 47 48 49 50
000
AXUS43 KGID 271202
MISGRI

GID CWA HOURLY WEATHER ROUNDUP
NATIONAL WEATHER SERVICE HASTINGS NE
700 AM CDT MON APR 27 2015

NOTE: "FAIR" INDICATES FEW OR NO CLOUDS BELOW 12,000 FEET WITH NO
SIGNIFICANT WEATHER AND/OR OBSTRUCTIONS TO VISIBILITY.

...SOUTH CENTRAL NEBRASKA...

CITY           SKY/WX    TMP DP  RH WIND       PRES   REMARKS
GRAND ISLAND   CLEAR     34  31  88 N5        30.19R WCI  30
HASTINGS       PTCLDY    36  33  89 NE3       30.17R
KEARNEY        PTCLDY    36  30  80 NW7       30.18S WCI  30
ORD            CLEAR     34  31  88 CALM      30.19R FOG
YORK           PTCLDY    37  36  93 N7        30.18R WCI  32
AURORA         CLEAR     37  36  93 N7        30.18R WCI  32
LEXINGTON      PTCLDY    32  31  96 NW6       30.19R FOG     WCI  27
HOLDREGE       MOCLDY    35  32  89 N8        30.17R WCI  28
HEBRON         CLOUDY    37  32  84 CALM      30.17R

...NEBRASKA PANHANDLE...

CITY           SKY/WX    TMP DP  RH WIND       PRES   REMARKS
CHADRON        CLOUDY    43  40  89 SW5       30.21R
ALLIANCE       CLOUDY    43  39  86 NE3       30.19R
SCOTTSBLUFF    CLOUDY    44  50 100 N5        30.19R
SIDNEY         CLOUDY    42  40  92 NE6       30.19R FOG

...WESTERN AND NORTH CENTRAL NEBRASKA...

CITY           SKY/WX    TMP DP  RH WIND       PRES   REMARKS
VALENTINE      CLEAR     31  28  89 SW5       30.20R WCI  26
AINSWORTH      CLEAR     34  31  89 W5        30.20R WCI  30
ONEILL         CLEAR     38  31  77 W5        30.19R WCI  34
BROKEN BOW     CLEAR     31  27  85 CALM      30.19R FOG
IMPERIAL       CLOUDY    45  40  82 E7        30.17R
NORTH PLATTE   NOT AVBL
MCCOOK         CLOUDY    39  34  82 N6        30.17R WCI  35

...EASTERN NEBRASKA...

CITY           SKY/WX    TMP DP  RH WIND       PRES   REMARKS
NORFOLK        CLEAR     36  32  85 W3        30.19R
SO SIOUX CITY  PTCLDY    34  28  79 W3        30.20R
TEKAMAH        PTCLDY    40  33  76 N9        30.19R WCI  34
COLUMBUS       CLEAR     37  28  70 CALM      30.20R
ALBION         CLEAR     32  30  91 N5        30.19R WCI  27
OMAHA EPPLEY   MOCLDY    38  35  89 N7        30.18R WCI  33
OFFUTT AFB     CLEAR     34  32  94 W3        30.16R
MILLARD        CLEAR     39  34  83 NW5       30.17R
LINCOLN        PTCLDY    34  31  88 N5        30.19R WCI  30
NEBRASKA CITY  PTCLDY    40  31  67 N5        30.16R
BEATRICE       MOCLDY    36  32  85 CALM      30.17R
FALLS CITY     MOCLDY    44  32  62 N3        30.15R

...NORTHERN KANSAS...

CITY           SKY/WX    TMP DP  RH WIND       PRES   REMARKS
GOODLAND       CLOUDY    41  41 100 NE13      30.12S FOG
HILL CITY      CLOUDY    43  35  73 NE10      30.12S
NORTON         SUNNY     39  34  81 N8        30.13S WCI  34
PHILLIPSBURG   CLEAR     45  36  70 N9        30.14R
SMITH CENTER   CLEAR     41  34  75 NE12      30.14R
HAYS           CLOUDY    43  30  61 NE12      30.09R
RUSSELL        CLOUDY    42  38  85 NE9       30.08R
CONCORDIA      CLOUDY    42  34  73 NE5       30.13R
SALINA         CLOUDY    47  36  65 NE8       30.10R
TOPEKA         CLOUDY    40  38  93 N3        30.12R



USA.gov is the U.S. government's official web portal to all federal, state and local government web resources and services.